Rexburg, ID

3:59 AM MDT on September 28, 2016 (GMT -0600)
Rexburg-Madison County

Weather History for KRXE - September, 2013

Change the Weather History Date:

Monday, September 9, 2013

  Actual Average Record
Temperature  
Mean Temperature 62 °F 58 °F  
Max Temperature 74 °F 75 °F 85 °F (2011)
Min Temperature 49 °F 42 °F 30 °F (2001)
Degree Days  
Heating Degree Days 3 7  
Month to date heating degree days 3 51  
Since 1 July heating degree days 3 124  
Cooling Degree Days 0 0  
Month to date cooling degree days 27 5  
Year to date cooling degree days 440 207  
Growing Degree Days 10 (Base 50)    
Moisture  
Dew Point 45 °F    
Average Humidity 62    
Maximum Humidity 93    
Minimum Humidity 31    
Precipitation  
Precipitation 0.00 in 0.03 in 0.49 in (2010)
Month to date precipitation 0.32 0.27  
Year to date precipitation 5.60 9.19  
Sea Level Pressure  
Sea Level Pressure 29.96 in    
Wind  
Wind Speed 2 mph (ENE)    
Max Wind Speed 8 mph    
Max Gust Speed 12 mph    
Visibility 10 miles    
Events      
T = Trace of Precipitation, MM = Missing Value Source: NWS Daily Summary

Daily Weather History Graph

Daily Weather History Graph

Search for Another Location

Airport or City:

Trip Planner

Search our weather history database for the weather conditions in past years. The results will help you decide how hot, cold, wet, or windy it might be!

Date:

Astronomy

Sep. 09, 2013 Rise Set
Actual Time 7:00 AM MDT 7:47 PM MDT
Civil Twilight 6:30 AM MDT 8:17 PM MDT
Nautical Twilight 5:56 AM MDT 8:51 PM MDT
Astronomical Twilight 5:20 AM MDT 9:27 PM MDT
Moon 11:36 AM MDT (9/9) 9:56 PM MDT (9/9)
Length of Visible Light 13h 46m
Length of Day
12h 47m
Waxing Crescent, 19% of the Moon is Illuminated
Sep 9
Waxing Crescent
Sep 12
First Quarter
Sep 19
Full
Sep 26
Last Quarter
Oct 4
New

Hourly Weather History & Observations

Time (MDT) Temp. Dew Point Humidity Pressure Visibility Wind Dir Wind Speed Gust Speed Precip Events Conditions
12:53 AM 54.0 °F 48.0 °F 80% 29.91 in 10.0 mi East 4.6 mph - N/A   Partly Cloudy
1:53 AM 53.1 °F 48.0 °F 83% 29.91 in 10.0 mi NE 12.7 mph - N/A   Clear
2:53 AM 55.9 °F 48.0 °F 75% 29.90 in 10.0 mi East 3.5 mph - N/A   Clear
3:53 AM 55.9 °F 48.0 °F 75% 29.89 in 10.0 mi South 4.6 mph - N/A   Clear
4:53 AM 53.1 °F 48.9 °F 86% 29.92 in 10.0 mi SW 5.8 mph - N/A   Clear
5:53 AM 51.1 °F 48.0 °F 89% 29.95 in 10.0 mi Calm Calm - N/A   Clear
6:53 AM 48.9 °F 46.9 °F 93% 29.99 in 10.0 mi Calm Calm - N/A   Clear
7:53 AM 50.0 °F 46.9 °F 89% 30.00 in 10.0 mi Calm Calm - 0.01 in   Clear
8:53 AM 53.1 °F 48.0 °F 83% 30.01 in 10.0 mi Calm Calm - N/A   Clear
10:53 AM 59.0 °F 50.0 °F 72% 30.00 in 10.0 mi Variable 4.6 mph - N/A   Clear
11:53 AM 63.0 °F 50.0 °F 63% 30.01 in 10.0 mi Calm Calm - N/A   Clear
12:53 PM 66.9 °F 46.9 °F 49% 29.98 in 10.0 mi WNW 5.8 mph - N/A   Clear
1:53 PM 70.0 °F 42.1 °F 36% 29.96 in 10.0 mi Calm Calm - N/A   Clear
2:53 PM 70.0 °F 43.0 °F 38% 29.94 in 10.0 mi Calm Calm - N/A   Partly Cloudy
3:53 PM 73.0 °F 42.1 °F 33% 29.92 in 10.0 mi Calm Calm - N/A   Clear
4:53 PM 73.0 °F 41.0 °F 31% 29.92 in 10.0 mi Calm Calm - N/A   Mostly Cloudy
5:53 PM 72.0 °F 41.0 °F 33% 29.94 in 10.0 mi Calm Calm - N/A   Overcast
6:53 PM 72.0 °F 42.1 °F 34% 29.94 in 10.0 mi Calm Calm - N/A   Partly Cloudy
7:53 PM 66.0 °F 45.0 °F 47% 29.96 in 10.0 mi Calm Calm - N/A   Clear
8:53 PM 62.1 °F 45.0 °F 53% 29.99 in 10.0 mi Calm Calm - N/A   Clear
9:53 PM 59.0 °F 42.1 °F 53% 30.00 in 10.0 mi NNE 5.8 mph - N/A   Clear
10:53 PM 57.0 °F 42.1 °F 57% 30.01 in 10.0 mi ENE 6.9 mph - N/A   Clear
11:53 PM 53.1 °F 42.1 °F 66% 30.01 in 10.0 mi ENE 5.8 mph - N/A   Clear